Point Salines, Grenada

4:07 AM AST on December 11, 2017 (GMT -0400)
Point Salines International

Weather History for TGPY - September, 2012

Change the Weather History Date:

Tuesday, September 11, 2012

  Actual Average Record
Temperature  
Mean Temperature 81 °F -  
Max Temperature 88 °F 85 °F 90 °F (2016)
Min Temperature 74 °F 76 °F 71 °F (2014)
Cooling Degree Days 16    
Growing Degree Days 31 (Base 50)    
Moisture  
Dew Point 77 °F    
Average Humidity 81    
Maximum Humidity 94    
Minimum Humidity 66    
Precipitation  
Precipitation 0.04 in - - ()
Sea Level Pressure  
Sea Level Pressure 29.92 in    
Wind  
Wind Speed 8 mph ()    
Max Wind Speed 20 mph    
Max Gust Speed -    
Visibility 7.5 miles    
Events Rain , Thunderstorm    
Averages and records for this station are not official NWS values.
T = Trace of Precipitation, MM = Missing Value Source: Averaged Metar Reports

Daily Weather History Graph

Daily Weather History Graph

Search for Another Location

Airport or City:

Trip Planner

Search our weather history database for the weather conditions in past years. The results will help you decide how hot, cold, wet, or windy it might be!

Date:

Astronomy

Sep. 11, 2012 Rise Set
Actual Time 5:56 AM AST 6:10 PM AST
Civil Twilight 5:35 AM AST 6:31 PM AST
Nautical Twilight 5:10 AM AST 6:56 PM AST
Astronomical Twilight 4:45 AM AST 7:21 PM AST
Moon 1:47 AM AST 2:43 PM AST
Length of Visible Light 12h 56m
Length of Day
12h 13m
Waning Crescent, 21% of the Moon is Illuminated
Sep 11
Waning Crescent
Sep 15
New
Sep 22
First Quarter
Sep 29
Full
Oct 8
Last Quarter

Hourly Weather History & Observations

Time (AST) Temp. Heat Index Dew Point Humidity Pressure Visibility Wind Dir Wind Speed Gust Speed Precip Events Conditions
12:00 AM 80.6 °F 86.2 °F 75.2 °F 84% 29.95 in 6.2 mi East 5.8 mph - N/A   Mostly Cloudy
1:00 AM 80.6 °F 86.2 °F 75.2 °F 84% 29.92 in 6.2 mi East 4.6 mph - N/A   Scattered Clouds
2:00 AM 80 °F - 76 °F 85% 29.91 in 10 mi East 4.6 mph - -   Widespread Dust
2:00 AM 78.8 °F - 77.0 °F 94% 29.92 in 6.2 mi East 4.6 mph - N/A   Scattered Clouds
3:00 AM 78.8 °F - 77.0 °F 94% 29.92 in 6.2 mi ENE 5.8 mph - N/A   Scattered Clouds
4:00 AM 78.8 °F - 77.0 °F 94% 29.92 in 6.2 mi East 10.4 mph - N/A Rain Rain Showers
5:00 AM 78 °F - 76 °F 91% 29.92 in 9 mi East 5.8 mph - -   Widespread Dust
5:00 AM 78.8 °F - 75.2 °F 89% 29.92 in 6.2 mi East 5.8 mph - N/A   Scattered Clouds
6:00 AM 78.8 °F - 75.2 °F 89% 29.92 in 0.6 mi East 13.8 mph - N/A   Scattered Clouds
7:00 AM 80.6 °F 87.1 °F 77.0 °F 89% 29.95 in 6.2 mi East 16.1 mph - N/A   Scattered Clouds
8:00 AM 84 °F - 77 °F 75% 29.96 in 9 mi ESE 8.1 mph - -   Widespread Dust
8:00 AM 84.2 °F 94.1 °F 77.0 °F 79% 29.95 in 6.2 mi ESE 8.1 mph - N/A   Scattered Clouds
9:00 AM 86.0 °F 96.9 °F 77.0 °F 74% 29.98 in 6.2 mi ESE 12.7 mph - N/A   Scattered Clouds
10:00 AM 86.0 °F 96.9 °F 77.0 °F 74% 29.98 in 6.2 mi ESE 11.5 mph - N/A   Scattered Clouds
11:00 AM 86 °F - 77 °F 68% 29.97 in 12 mi ESE 13.8 mph - -   Widespread Dust
11:00 AM 86.0 °F 96.9 °F 77.0 °F 74% 29.98 in 6.2 mi ESE 13.8 mph - N/A   Scattered Clouds
12:00 PM 86.0 °F 96.9 °F 77.0 °F 74% 29.95 in 6.2 mi SE 13.8 mph - N/A   Scattered Clouds
1:00 PM 86.0 °F 96.9 °F 77.0 °F 74% 29.92 in 6.2 mi ESE 11.5 mph - N/A   Partly Cloudy
2:00 PM 87 °F - 77 °F 66% 29.88 in 15 mi SE 11.5 mph - -   Widespread Dust
2:00 PM 86.0 °F 96.9 °F 77.0 °F 74% 29.89 in 6.2 mi SE 11.5 mph - N/A   Partly Cloudy
3:00 PM 87.8 °F 99.7 °F 77.0 °F 70% 29.86 in 6.2 mi ESE 13.8 mph - N/A   Scattered Clouds
4:00 PM 86.0 °F 96.9 °F 77.0 °F 74% 29.86 in 6.2 mi ESE 11.5 mph - N/A   Scattered Clouds
5:00 PM 85 °F - 77 °F 72% 29.87 in 16 mi East 10.4 mph - -   Scattered Clouds
5:00 PM 86.0 °F 96.9 °F 77.0 °F 74% 29.86 in 6.2 mi East 10.4 mph - N/A   Partly Cloudy
6:00 PM 84.2 °F 94.1 °F 77.0 °F 79% 29.89 in 6.2 mi East 11.5 mph - N/A   Partly Cloudy
7:00 PM 82.4 °F 90.9 °F 77.0 °F 84% 29.89 in 6.2 mi ESE 8.1 mph - N/A Thunderstorm Partly Cloudy
8:00 PM 82 °F - 76 °F 78% 29.91 in 16 mi East 6.9 mph - -   Scattered Clouds
8:00 PM 82.4 °F 90.9 °F 77.0 °F 84% 29.89 in 6.2 mi East 6.9 mph - N/A   Partly Cloudy
9:00 PM 80.6 °F 87.1 °F 77.0 °F 89% 29.92 in 6.2 mi East 8.1 mph - N/A   Partly Cloudy
10:00 PM 82.4 °F 90.9 °F 77.0 °F 84% 29.92 in 6.2 mi Variable 2.3 mph - N/A   Mostly Cloudy
11:00 PM 78 °F - 77 °F 94% 29.95 in 11 mi East 19.6 mph - - Rain Light Rain Showers
11:00 PM 78.8 °F - 77.0 °F 94% 29.95 in 6.2 mi East 19.6 mph - N/A Rain Rain Showers